Regional Weather Roundup
Issued by NWS

Home | Current Version | Previous Version | Graphics & Text | Print | Product List | Glossary On
Versions: 1 2 3 4 5 6 7 8 9 10 11 12 13 14 15 16 17 18 19 20 21 22 23 24 25 26 27 28 29 30 31 32 33 34 35 36 37 38 39 40 41 42 43 44 45 46 47 48 49 50
000
ASUS44 KMEG 021500
RWRTN
TENNESSEE HOURLY STATE WEATHER ROUNDUP
NATIONAL WEATHER SERVICE MEMPHIS TN
900 AM CST FRI DEC 02 2016

TNZ002-004-019-021-049-052-054-088>092-021600-
WEST TENNESSEE

CITY           SKY/WX    TMP DP  RH WIND       PRES   REMARKS
MEMPHIS INTL   MOSUNNY   48  35  60 CALM      30.27R
NWS MEMPHIS      N/A     42 N/A N/A MISG        N/A
JACKSON        SUNNY     44  37  76 CALM      30.27R
DYERSBURG      SUNNY    N/A N/A N/A CALM      30.29R
UNION CITY     SUNNY     37  34  87 CALM      30.26R
PARIS          SUNNY     39  30  70 CALM      30.26R
LEXINGTON      SUNNY     37  34  87 CALM      30.26R
$$

TNZ008-025-027-028-033-062-065-066-021600-
NORTH MIDDLE TENNESSEE

CITY           SKY/WX    TMP DP  RH WIND       PRES   REMARKS
NASHVILLE      SUNNY     42  32  67 CALM      30.28R
CLARKSVILLE    SUNNY     40  32  73 SW3       30.27R
SMYRNA         SUNNY     40  33  76 S5        30.28R
CROSSVILLE     SUNNY     40  29  64 CALM      30.23R
$$

TNZ061-075-076-078-094-096-097-021600-
SOUTH MIDDLE TENNESSEE

CITY           SKY/WX    TMP DP  RH WIND       PRES   REMARKS
TULLAHOMA      SUNNY     43  32  65 CALM      30.27R
WINCHESTER     SUNNY     43  34  70 CALM      30.28R
MCMINNVILLE    SUNNY     39  34  81 CALM      30.26R
COLUMBIA       SUNNY     37  37 100 CALM      30.25S
SHELBYVILLE    SUNNY     43  36  75 CALM      30.28R
$$

TNZ017-018-042-046-047-021600-
NORTHEAST TENNESSEE

CITY           SKY/WX    TMP DP  RH WIND       PRES   REMARKS
TRI CITIES     SUNNY     38  33  82 CALM      30.22R
$$

TNZ012-013-036-069-073-074-021600-
CENTRAL EAST TENNESSEE

CITY           SKY/WX    TMP DP  RH WIND       PRES   REMARKS
KNOXVILLE      MOSUNNY   42  32  67 SW3       30.25R
OAK RIDGE      SUNNY     40  29  64 CALM      30.26R
GATLINBURG     SUNNY     37  30  75 CALM      30.25S
$$

TNZ083-085-099-021600-
SOUTHEAST TENNESSEE

CITY           SKY/WX    TMP DP  RH WIND       PRES   REMARKS
CHATTANOOGA    MOSUNNY   43  32  65 CALM      30.28R
$$

SKY/WX REPORTED AS FAIR MEANS FEW OR NO CLOUDS BELOW
12 THOUSAND FEET.




USA.gov is the U.S. government's official web portal to all federal, state and local government web resources and services.